Location: Wanzleben
(52.0609°N, 11.4408°E)
Time: 01:23:53
(UTC+00:00)

Okean 1-7 Rocket - Pass Details

Date: 18 September 2020
Orbit: 616 x 649 km, 82.5° (Epoch: 23 October)

Event Time Altitude Azimuth Distance (km) Brightness Sun altitude
Rises 20:40:36 0° 346° (NNW) 2,981 8.0 -28.2°
Reaches altitude 10° 20:42:54 10° 342° (NNW) 2,066 7.0 -28.4°
Enters shadow 20:46:41 50° 300° (WNW) 835 4.4 -28.8°
